Home > Weather > Toccoa > Past weeks

Flag for U.S.A. Weather for the Past 2 Weeks in Toccoa, Georgia, U.S.A.

Now
25 °F

Clear.


Feels Like: 14 °F
Forecast: 23 / 36 °F
Wind: 13 mph from West

Location: Clemson-Oconee County Airport

Current Time: Feb 10, 2016 at 6:27:52 AM

Latest Report: Feb 10, 2016 at 5:54 AM


Visibility: 10 mi

Pressure: 29.99 "Hg

Humidity: 53%

Dew point: 10 °F

Location of ToccoaLocation

Historic Weather in Toccoa — Graph

°F

Toccoa Temperature Yesterday

Maximum temperature yesterday: 39 °F (at 12:54 PM)
Minimum temperature yesterday: 28 °F (at 11:54 PM)
Average temperature yesterday: 35 °F

High & Low Weather Summary for the Past Weeks

 TemperatureHumidityPressure
High68 °F (Feb 1, 3:54 PM)94% (Feb 3, 6:54 AM)30.42 "Hg (Feb 3, 6:54 AM)
Low25 °F (Feb 10, 2:54 AM)17% (Jan 29, 2:54 PM)29.67 "Hg (Feb 8, 2:54 PM)
Average48 °F59%30.03 "Hg
* Reported Jan 26 4:54 AM — Feb 10 4:54 AM, Toccoa, Weather by CustomWeather, © 2016

Note: Actual official high and low records may vary slightly from our data, if they occured in-between our weather recording intervals... More about our weather records

Advertising

Toccoa Weather History for the Previous 24 Hours

 ConditionsComfort  
Time TempWeatherWind HumidityBarometerVisibility
4:54 AM
Wed, Feb 10
25 °FClear.15 mph53%29.96 "Hg10 mi
3:54 AM25 °FClear.14 mph55%29.94 "Hg10 mi
2:54 AM25 °FClear.14 mph58%29.93 "Hg10 mi
1:54 AM26 °FClear.17 mph55%29.93 "Hg10 mi
12:54 AM27 °FClear.14 mph53%29.92 "Hg10 mi
11:54 PM
Tue, Feb 9
28 °FPassing clouds.15 mph53%29.93 "Hg10 mi
10:54 PM30 °FOvercast.12 mph51%29.93 "Hg10 mi
9:54 PM31 °FPassing clouds.15 mph54%29.92 "Hg10 mi
8:54 PM32 °FOvercast.17 mph61%29.91 "Hg10 mi
7:54 PM33 °FMostly cloudy.15 mph49%29.90 "Hg10 mi
6:54 PM34 °FOvercast.14 mph48%29.88 "Hg10 mi
5:54 PM35 °FMostly cloudy.15 mph44%29.85 "Hg10 mi
4:54 PM36 °FMostly cloudy.14 mph46%29.82 "Hg10 mi
3:54 PM37 °FOvercast.10 mph42%29.79 "Hg10 mi
2:54 PM38 °FOvercast.13 mph41%29.77 "Hg10 mi
1:54 PM38 °FOvercast.14 mph39%29.76 "Hg10 mi
12:54 PM39 °FPartly sunny.16 mph38%29.77 "Hg10 mi
11:54 AM37 °FMostly cloudy.18 mph39%29.79 "Hg10 mi
10:54 AM36 °FPartly sunny.15 mph42%29.80 "Hg10 mi
9:54 AM36 °FCloudy.16 mph48%29.80 "Hg10 mi
8:54 AM35 °FMostly cloudy.16 mph50%29.79 "Hg10 mi
7:54 AM34 °FOvercast.12 mph52%29.77 "Hg10 mi
6:54 AM34 °FOvercast.12 mph50%29.76 "Hg10 mi
Weather by CustomWeather, © 2016

See weather overviewHow to use our weather pages